Regional Weather Roundup
Issued by NWS Cleveland, OH

Home | Current Version | Previous Version | Text Only | Print | Product List | Glossary Off
Versions: 1 2 3 4 5 6 7 8 9 10 11 12 13 14 15 16 17 18 19 20 21 22 23 24 25 26 27 28 29 30 31 32 33 34 35 36 37 38 39 40 41 42 43 44 45 46 47 48 49 50

000
ASUS41 KCLE 052300
RWRCLE
OHIO REGIONAL WEATHER ROUNDUP
NATIONAL WEATHER SERVICE WILMINGTON, OH
700 PM EDT TUE MAY 05 2015

NOTE: "FAIR" INDICATES FEW OR NO CLOUDS BELOW 12,000 FEET WITH NO
SIGNIFICANT WEATHER AND/OR OBSTRUCTIONS TO VISIBILITY.

OHZ001>008-015>018-024>027-034-035-043-044-060000-
   NORTHWEST OHIO

CITY           SKY/WX    TMP DP  RH WIND       PRES   REMARKS
DEFIANCE       CLOUDY    58  54  86 NE12      30.21F FOG
FINDLAY        MOSUNNY   65  55  70 NE12      30.20R
TOLEDO EXPRESS CLOUDY    54  48  80 NE12      30.23S
TOLEDO EXEC    CLOUDY    53  47  79 NE10      30.25F
LIMA           PTSUNNY   78  58  49 W9        30.17S
$$

OHZ009>014-019>023-028>033-038-089-060000-
   NORTHEAST OHIO

CITY           SKY/WX    TMP DP  RH WIND       PRES   REMARKS
CLE-HOPKINS    CLOUDY    55  50  83 NE7       30.27R
CLE-LAKEFRONT  FOG       50  48  93 NE6       30.24F VSB 3/4
CUY CO. ARPT   CLOUDY    55  54  94 E7        30.25F FOG
LORAIN-ELYRIA  CLOUDY    54  50  86 E12       30.24F
ASHTABULA      CLOUDY    54  51  90 NE5       30.25F FOG
AKRON-CANTON   LGT RAIN  72  58  61 CALM      30.21F
WOOSTER        NOT AVBL
MANSFIELD      PTSUNNY   66  64  93 E6        30.22R FOG
YOUNGSTOWN     CLOUDY    68  60  75 NW6       30.22F
$$

OHZ042-051>053-060>062-070>072-077>081-060000-
  SOUTHWEST OHIO

CITY           SKY/WX    TMP DP  RH WIND       PRES   REMARKS
CINC-COVINGTON MOSUNNY   80  53  39 SW5       30.18F
CINC-LUNKEN    PTSUNNY   79  57  46 S8        30.17S
HAMILTON       SUNNY     83  52  34 SW9       30.17F
DAYTON         NOT AVBL
WRIGHT-PAT AFB NOT AVBL
DAYTON GENERAL SUNNY     80  51  36 SW8       30.17F
WILMINGTON     MOSUNNY   77  53  43 SW6       30.18F
$$

OHZ036-037-039>041-045>050-054>059-063>069-073>076-082>088-060000-
  CENTRAL AND SOUTHEAST OHIO

CITY           SKY/WX    TMP DP  RH WIND       PRES   REMARKS
COLUMBUS       MOSUNNY   79  54  41 W7        30.17F
OSU AIRPORT    SUNNY     77  58  51 W7        30.17F
BOLTON FIELD   NOT AVBL
RICKENBACK AFB NOT AVBL
NEWARK         PTSUNNY   78  59  51 CALM      30.17F
MARION         MOSUNNY   73  61  65 E7        30.18F
LANCASTER      MOSUNNY   79  52  38 W12       30.18F
ZANESVILLE     MOSUNNY   78  53  41 W8        30.18F
NEW PHILLY     PTSUNNY   76  61  59 CALM      30.20S
$$



USA.gov is the U.S. government's official web portal to all federal, state and local government web resources and services.